GW6516 Weather Reports


Display with metric or nautical units.
time (UTC)temp
F
wind
direction
speed
MPH
gust
MPH
rain 1hr
in
rain 24hr
in
rain mn
in
humidity
%
barometer
mb
20260507140528 72 0 0.0 0.0 0.00 0.00 0.00 61 1015.8
20260507140043 72 0 0.0 0.0 0.00 0.00 0.00 60 1015.7
20260507135529 73 0 0.0 0.0 0.00 0.00 0.00 59 1015.6
20260507135029 73 0 0.0 0.0 0.00 0.00 0.00 60 1015.6
20260507134537 74 0 0.0 0.0 0.00 0.00 0.00 59 1015.6
20260507134026 74 0 0.0 0.0 0.00 0.00 0.00 58 1015.6
20260507133529 75 0 0.0 0.0 0.00 0.00 0.00 57 1015.6
20260507133043 75 0 0.0 0.0 0.00 0.00 0.00 55 1015.6
20260507132528 76 0 0.0 2.0 0.00 0.00 0.00 54 1015.5
20260507132028 77 0 0.0 2.0 0.00 0.00 0.00 53 1015.5
20260507131546 77 0 0.0 2.0 0.00 0.00 0.00 52 1015.5
20260507131031 78 0 0.0 0.0 0.00 0.00 0.00 45 1015.5
20260507130528 79 0 0.0 0.0 0.00 0.00 0.00 46 1015.4
20260507130038 79 0 0.0 0.0 0.00 0.00 0.00 41 1015.4
20260507125528 80 0 0.0 0.0 0.00 0.00 0.00 40 1015.4
20260507125029 81 0 0.0 0.0 0.00 0.00 0.00 42 1015.3
20260507124548 82 0 0.0 0.0 0.00 0.00 0.00 43 1015.4
20260507124030 83 0 0.0 0.0 0.00 0.00 0.00 37 1015.4
20260507123527 83 0 0.0 1.0 0.00 0.00 0.00 35 1015.4
20260507123040 83 0 0.0 1.0 0.00 0.00 0.00 31 1015.4
20260507122528 84 0 0.0 3.0 0.00 0.00 0.00 30 1015.4
20260507122029 84 0 1.0 3.0 0.00 0.00 0.00 28 1015.4
20260507121539 85 0 0.0 2.0 0.00 0.00 0.00 30 1015.4
20260507121029 85 0 0.0 1.0 0.00 0.00 0.00 30 1015.4
20260507120529 85 0 0.0 3.0 0.00 0.00 0.00 28 1015.3
20260507120045 85 13 1.0 3.0 0.00 0.00 0.00 26 1015.3
20260507115531 86 31 0.0 2.0 0.00 0.00 0.00 27 1015.2
20260507115027 86 39 1.0 2.0 0.00 0.00 0.00 28 1015.2
20260507114544 86 336 0.0 3.0 0.00 0.00 0.00 29 1015.1
20260507114030 86 0 0.0 3.0 0.00 0.00 0.00 27 1015.1
20260507113529 86 22 0.0 3.0 0.00 0.00 0.00 28 1015.0
20260507113039 86 253 0.0 3.0 0.00 0.00 0.00 26 1015.0
20260507112529 86 0 0.0 5.0 0.00 0.00 0.00 25 1015.0
20260507112029 86 0 1.0 5.0 0.00 0.00 0.00 26 1015.0
20260507111539 86 190 0.0 3.0 0.00 0.00 0.00 25 1015.0
20260507111218 86 352 0.0 3.0 0.00 0.00 0.00 28 1015.0
20260507110823 86 90 0.0 2.0 0.00 0.00 0.00 28 1015.0
20260507110056 86 94 1.0 2.0 0.00 0.00 0.00 25 1014.9
20260507105528 86 0 0.0 2.0 0.00 0.00 0.00 25 1014.8
20260507105028 86 26 0.0 4.0 0.00 0.00 0.00 24 1014.9
20260507104551 86 0 0.0 4.0 0.00 0.00 0.00 25 1014.8
20260507104028 86 87 0.0 4.0 0.00 0.00 0.00 29 1014.9
20260507103530 86 348 1.0 4.0 0.00 0.00 0.00 29 1014.8
20260507103109 86 0 1.0 3.0 0.00 0.00 0.00 32 1014.9
20260507102529 86 0 0.0 3.0 0.00 0.00 0.00 28 1014.9
20260507102047 86 0 0.0 3.0 0.00 0.00 0.00 29 1014.9
20260507102043 86 0 0.0 2.0 0.00 0.00 0.00 31 1015.0
20260507100529 86 0 0.0 5.0 0.00 0.00 0.00 27 1015.0
20260507100048 86 0 0.0 5.0 0.00 0.00 0.00 27 1015.0
20260507095529 86 17 0.0 3.0 0.00 0.00 0.00 26 1015.0
20260507095030 86 0 0.0 4.0 0.00 0.00 0.00 29 1015.0
20260507094538 85 0 0.0 4.0 0.00 0.00 0.00 28 1015.0
20260507094028 86 352 0.0 4.0 0.00 0.00 0.00 30 1015.0
20260507093532 86 0 0.0 4.0 0.00 0.00 0.00 31 1015.1
20260507093037 85 321 1.0 3.0 0.00 0.00 0.00 27 1015.1
20260507092526 86 360 1.0 3.0 0.00 0.00 0.00 28 1015.1
20260507092028 86 19 1.0 3.0 0.00 0.00 0.00 28 1015.1
20260507091546 86 12 0.0 4.0 0.00 0.00 0.00 30 1015.2
20260507091030 85 65 1.0 4.0 0.00 0.00 0.00 33 1015.2
20260507090531 85 342 1.0 4.0 0.00 0.00 0.00 33 1015.2
20260507090050 85 0 1.0 4.0 0.00 0.00 0.00 33 1015.2
20260507085529 85 11 2.0 5.0 0.00 0.00 0.00 34 1015.2
20260507085027 84 352 1.0 7.0 0.00 0.00 0.00 36 1015.2
20260507084545 84 350 2.0 7.0 0.00 0.00 0.00 33 1015.2
20260507084030 84 9 1.0 5.0 0.00 0.00 0.00 35 1015.3
20260507083528 84 346 1.0 5.0 0.00 0.00 0.00 35 1015.3
20260507083039 84 61 1.0 5.0 0.00 0.00 0.00 37 1015.3
20260507082723 85 14 1.0 3.0 0.00 0.00 0.00 35 1015.3
20260507082027 85 282 0.0 2.0 0.00 0.00 0.00 39 1015.3
20260507081543 84 0 1.0 5.0 0.00 0.00 0.00 33 1015.3
20260507081028 84 90 1.0 5.0 0.00 0.00 0.00 32 1015.4
20260507080526 84 349 1.0 5.0 0.00 0.00 0.00 36 1015.4
20260507080047 84 360 0.0 4.0 0.00 0.00 0.00 34 1015.4
20260507075529 84 44 1.0 4.0 0.00 0.00 0.00 34 1015.4
20260507075027 84 312 1.0 4.0 0.00 0.00 0.00 33 1015.4
20260507074541 84 61 2.0 4.0 0.00 0.00 0.00 35 1015.4
20260507074028 84 203 0.0 3.0 0.00 0.00 0.00 37 1015.5
20260507073531 83 347 0.0 3.0 0.00 0.00 0.00 36 1015.4
20260507073042 83 352 0.0 3.0 0.00 0.00 0.00 36 1015.5
20260507072529 84 0 0.0 3.0 0.00 0.00 0.00 38 1015.5
20260507072029 84 140 1.0 3.0 0.00 0.00 0.00 34 1015.5
20260507071539 84 174 0.0 2.0 0.00 0.00 0.00 39 1015.6
20260507071028 84 150 0.0 3.0 0.00 0.00 0.00 39 1015.7
20260507070528 83 0 1.0 5.0 0.00 0.00 0.00 46 1015.8
20260507070058 82 5 0.0 5.0 0.00 0.00 0.00 43 1015.7
20260507065528 82 39 2.0 5.0 0.00 0.00 0.00 39 1015.8
20260507065028 82 0 0.0 3.0 0.00 0.00 0.00 38 1015.8
20260507064549 84 0 0.0 3.0 0.00 0.00 0.00 39 1015.8
20260507064027 84 23 0.0 5.0 0.00 0.00 0.00 39 1015.7
20260507063529 83 0 1.0 5.0 0.00 0.00 0.00 42 1015.7
20260507063039 83 344 0.0 4.0 0.00 0.00 0.00 47 1015.7
20260507062529 82 17 0.0 5.0 0.00 0.00 0.00 44 1015.7
20260507062029 81 315 2.0 5.0 0.00 0.00 0.00 41 1015.8
20260507061541 82 252 0.0 5.0 0.00 0.00 0.00 46 1015.9
20260507061028 81 334 1.0 5.0 0.00 0.00 0.00 51 1015.9
20260507060528 81 0 1.0 8.0 0.00 0.00 0.00 51 1015.9
20260507060037 80 279 0.0 8.0 0.00 0.00 0.00 51 1015.9
20260507055529 80 351 2.0 8.0 0.00 0.00 0.00 49 1015.9
20260507055028 80 0 1.0 4.0 0.00 0.00 0.00 50 1015.9
20260507054559 79 0 1.0 4.0 0.00 0.00 0.00 52 1016.0
20260507054031 79 42 0.0 3.0 0.00 0.00 0.00 50 1016.0
20260507053528 79 0 1.0 3.0 0.00 0.00 0.00 50 1016.0
20260507053053 79 28 1.0 5.0 0.00 0.00 0.00 49 1016.0
20260507052530 79 332 1.0 4.0 0.00 0.00 0.00 49 1016.0
20260507052031 79 352 0.0 3.0 0.00 0.00 0.00 50 1016.1
20260507051547 78 333 1.0 3.0 0.00 0.00 0.00 52 1016.1
20260507051029 78 0 0.0 4.0 0.00 0.00 0.00 54 1016.1
20260507050530 78 0 1.0 4.0 0.00 0.00 0.00 56 1016.1
20260507050046 78 12 1.0 4.0 0.00 0.00 0.00 53 1016.0
20260507045529 78 19 1.0 4.0 0.00 0.00 0.00 51 1016.1
20260507045029 78 360 1.0 7.0 0.00 0.00 0.00 52 1016.1
20260507044544 77 0 0.0 7.0 0.00 0.00 0.00 52 1016.1
20260507044027 77 44 0.0 4.0 0.00 0.00 0.00 53 1016.0
20260507043527 77 0 0.0 4.0 0.00 0.00 0.00 53 1016.0
20260507043042 77 336 0.0 4.0 0.00 0.00 0.00 54 1015.9
20260507042529 77 27 1.0 4.0 0.00 0.00 0.00 54 1015.9
20260507042028 77 0 1.0 4.0 0.00 0.00 0.00 51 1015.9
20260507041555 77 92 1.0 4.0 0.00 0.00 0.00 51 1015.8
20260507041028 77 267 0.0 4.0 0.00 0.00 0.00 56 1015.7
20260507040528 78 27 1.0 4.0 0.00 0.00 0.00 51 1015.7
20260507040043 79 352 1.0 3.0 0.00 0.00 0.00 50 1015.7
20260507035528 79 289 0.0 2.0 0.00 0.00 0.00 45 1015.7
20260507035029 79 0 0.0 0.0 0.00 0.00 0.00 45 1015.6
20260507034540 79 0 0.0 0.0 0.00 0.00 0.00 44 1015.6
20260507034028 79 0 0.0 0.0 0.00 0.00 0.00 48 1015.7
20260507033527 78 0 0.0 0.0 0.00 0.00 0.00 47 1015.6
20260507033040 77 0 0.0 0.0 0.00 0.00 0.00 47 1015.7
20260507032528 77 0 0.0 2.0 0.00 0.00 0.00 46 1015.8
20260507032028 77 0 0.0 2.0 0.00 0.00 0.00 48 1015.8
20260507031541 78 135 0.0 0.0 0.00 0.00 0.00 47 1015.7
20260507031028 77 0 0.0 0.0 0.00 0.00 0.00 54 1015.7
20260507030530 77 0 0.0 0.0 0.00 0.00 0.00 47 1015.9
20260507030043 76 0 0.0 0.0 0.00 0.00 0.00 49 1015.8
20260507025528 76 0 0.0 2.0 0.00 0.00 0.00 49 1015.7
20260507025027 75 0 0.0 2.0 0.00 0.00 0.00 47 1015.8
20260507024541 75 0 0.0 0.0 0.00 0.00 0.00 51 1015.8
20260507024027 74 0 0.0 0.0 0.00 0.00 0.00 51 1015.7
20260507023527 74 0 0.0 0.0 0.00 0.00 0.00 52 1015.8
20260507023037 73 0 0.0 0.0 0.00 0.00 0.00 50 1015.7
20260507022527 72 0 0.0 0.0 0.00 0.00 0.00 53 1015.7
20260507022027 71 0 0.0 0.0 0.00 0.00 0.00 54 1015.7
20260507021538 71 0 0.0 0.0 0.00 0.00 0.00 55 1015.7
20260507021029 71 0 0.0 0.0 0.00 0.00 0.00 55 1015.7
20260507020527 70 0 0.0 0.0 0.00 0.00 0.00 59 1015.6
20260507020050 69 0 0.0 0.0 0.00 0.00 0.00 59 1015.6
20260507015527 69 0 0.0 0.0 0.00 0.00 0.00 63 1015.6
20260507015026 68 0 0.0 0.0 0.00 0.00 0.00 67 1015.6
20260507014606 67 0 0.0 0.0 0.00 0.00 0.00 68 1015.7
20260507014027 66 0 0.0 0.0 0.00 0.00 0.00 68 1015.7
20260507013529 66 0 0.0 0.0 0.00 0.00 0.00 70 1015.7
20260507013047 64 0 0.0 0.0 0.00 0.00 0.00 69 1015.6
20260507012529 63 0 0.0 0.0 0.00 0.00 0.00 73 1015.6
20260507012032 63 0 0.0 0.0 0.00 0.00 0.00 74 1015.6
20260507011543 62 0 0.0 0.0 0.00 0.00 0.00 75 1015.5
20260507011026 60 0 0.0 0.0 0.00 0.00 0.00 75 1015.4
20260507010527 59 0 0.0 0.0 0.00 0.00 0.00 76 1015.4
20260507010046 58 0 0.0 0.0 0.00 0.00 0.00 78 1015.3
20260507005531 58 0 0.0 0.0 0.00 0.00 0.00 78 1015.3
20260507005028 57 0 0.0 0.0 0.00 0.00 0.00 77 1015.3
20260507004544 56 0 0.0 0.0 0.00 0.00 0.00 79 1015.1
20260507004028 55 0 0.0 0.0 0.00 0.00 0.00 79 1015.0
20260507003529 55 0 0.0 0.0 0.00 0.00 0.00 80 1014.9
20260507003043 54 0 0.0 0.0 0.00 0.00 0.00 80 1014.9
20260507002529 54 0 0.0 0.0 0.00 0.00 0.00 82 1014.8
20260507002029 53 0 0.0 0.0 0.00 0.00 0.00 82 1014.8
20260507001555 53 0 0.0 0.0 0.00 0.00 0.00 83 1014.7
20260507001026 53 0 0.0 1.0 0.00 0.00 0.00 83 1014.9
20260507000528 53 0 0.0 2.0 0.00 0.00 0.00 84 1014.7
20260507000054 52 0 0.0 2.0 0.00 0.00 0.00 84 1014.7
20260506235526 52 0 1.0 2.0 0.00 0.00 0.00 85 1014.7
20260506235028 52 0 0.0 1.0 0.00 0.00 0.00 85 1014.7
20260506234601 52 0 0.0 0.0 0.00 0.00 0.00 85 1014.6
20260506234028 52 0 0.0 0.0 0.00 0.00 0.00 85 1014.6
20260506233529 52 0 0.0 2.0 0.00 0.00 0.00 85 1014.6
20260506233048 52 0 0.0 2.0 0.00 0.00 0.00 85 1014.6
20260506232529 52 90 0.0 1.0 0.00 0.00 0.00 85 1014.6
20260506232029 52 0 0.0 0.0 0.00 0.00 0.00 85 1014.5
20260506231539 52 0 0.0 0.0 0.00 0.00 0.00 85 1014.4
20260506231029 53 0 0.0 0.0 0.00 0.00 0.00 85 1014.4
20260506230527 53 0 0.0 0.0 0.00 0.00 0.00 84 1014.3
20260506230039 53 0 0.0 0.0 0.00 0.00 0.00 84 1014.4
20260506225527 53 0 0.0 0.0 0.00 0.00 0.00 84 1014.4
20260506225027 54 0 0.0 0.0 0.00 0.00 0.00 83 1014.4
20260506224547 54 0 0.0 0.0 0.00 0.00 0.00 83 1014.5
20260506224027 54 0 0.0 0.0 0.00 0.00 0.00 82 1014.5
20260506223528 54 0 0.0 1.0 0.00 0.00 0.00 82 1014.4
20260506223042 54 0 0.0 1.0 0.00 0.00 0.00 82 1014.5
20260506222527 54 190 0.0 0.0 0.00 0.00 0.00 82 1014.5
20260506222029 54 0 0.0 0.0 0.00 0.00 0.00 82 1014.6
20260506221552 54 0 0.0 0.0 0.00 0.00 0.00 82 1014.6
20260506221027 55 0 0.0 0.0 0.00 0.00 0.00 82 1014.6
20260506220529 55 0 0.0 0.0 0.00 0.00 0.00 82 1014.6
20260506220046 55 0 0.0 0.0 0.00 0.00 0.00 82 1014.7
20260506215526 55 0 0.0 0.0 0.00 0.00 0.00 82 1014.9
20260506215028 55 0 0.0 0.0 0.00 0.00 0.00 82 1014.9
20260506214537 55 0 0.0 0.0 0.00 0.00 0.00 82 1014.9
20260506214026 55 0 0.0 0.0 0.00 0.00 0.00 82 1015.0
20260506213527 55 0 0.0 0.0 0.00 0.00 0.00 82 1015.0
20260506213048 55 0 0.0 0.0 0.00 0.00 0.00 83 1015.1
20260506212529 55 0 0.0 0.0 0.00 0.00 0.00 83 1015.1
20260506212030 55 0 0.0 0.0 0.00 0.00 0.00 84 1015.1
20260506211549 55 0 0.0 0.0 0.00 0.00 0.00 84 1015.1
20260506211027 55 0 0.0 0.0 0.00 0.00 0.00 84 1015.1
20260506210529 55 0 0.0 0.0 0.00 0.00 0.00 84 1015.2
20260506210046 55 0 0.0 0.0 0.00 0.00 0.00 84 1015.2
20260506205529 55 0 0.0 0.0 0.00 0.00 0.00 84 1015.2
20260506205029 56 0 0.0 0.0 0.00 0.00 0.00 83 1015.2
20260506204539 56 0 0.0 0.0 0.00 0.00 0.00 83 1015.2
20260506204028 56 0 0.0 0.0 0.00 0.00 0.00 83 1015.2
20260506203529 56 0 0.0 0.0 0.00 0.00 0.00 83 1015.2
20260506203045 56 0 0.0 0.0 0.00 0.00 0.00 83 1015.2
20260506202529 56 0 0.0 0.0 0.00 0.00 0.00 82 1015.2
20260506202029 56 0 0.0 0.0 0.00 0.00 0.00 82 1015.3
20260506201549 56 0 0.0 0.0 0.00 0.00 0.00 82 1015.3
20260506201027 56 0 0.0 0.0 0.00 0.00 0.00 82 1015.3
20260506200526 56 0 0.0 0.0 0.00 0.00 0.00 82 1015.3
20260506200046 56 0 0.0 0.0 0.00 0.00 0.00 82 1015.4
20260506195529 57 0 0.0 0.0 0.00 0.00 0.00 82 1015.4
20260506195029 57 0 0.0 0.0 0.00 0.00 0.00 82 1015.4
20260506194540 57 0 0.0 0.0 0.00 0.00 0.00 81 1015.5
20260506194027 57 0 0.0 0.0 0.00 0.00 0.00 81 1015.5
20260506193528 57 0 0.0 0.0 0.00 0.00 0.00 81 1015.5
20260506193050 57 0 0.0 0.0 0.00 0.00 0.00 82 1015.5
20260506192530 57 0 0.0 0.0 0.00 0.00 0.00 82 1015.5
20260506192028 57 0 0.0 0.0 0.00 0.00 0.00 83 1015.5
20260506191538 57 0 0.0 0.0 0.00 0.00 0.00 82 1015.5
20260506191029 57 0 0.0 0.0 0.00 0.00 0.00 82 1015.6
20260506190529 57 0 0.0 0.0 0.00 0.00 0.00 82 1015.6
20260506190035 57 0 0.0 0.0 0.00 0.00 0.00 81 1015.6
20260506185527 57 0 0.0 0.0 0.00 0.00 0.00 81 1015.7
20260506185027 58 0 0.0 0.0 0.00 0.00 0.00 81 1015.7
20260506184543 58 0 0.0 0.0 0.00 0.00 0.00 80 1015.8
20260506184027 58 0 0.0 0.0 0.00 0.00 0.00 80 1015.9
20260506183529 58 0 0.0 0.0 0.00 0.00 0.00 79 1015.9
20260506183037 58 0 0.0 0.0 0.00 0.00 0.00 79 1016.0
20260506182528 59 0 0.0 2.0 0.00 0.00 0.00 79 1016.0
20260506182027 59 0 0.0 2.0 0.00 0.00 0.00 80 1016.1
20260506181553 59 0 0.0 2.0 0.00 0.00 0.00 80 1016.1
20260506181029 58 0 0.0 2.0 0.00 0.00 0.00 80 1016.2
20260506180529 58 0 0.0 1.0 0.00 0.00 0.00 81 1016.3
20260506180047 58 0 0.0 1.0 0.00 0.00 0.00 82 1016.4
20260506175529 58 0 0.0 1.0 0.00 0.00 0.00 83 1016.4
20260506175027 58 0 0.0 0.0 0.00 0.00 0.00 83 1016.4
20260506174539 58 0 0.0 0.0 0.00 0.00 0.00 83 1016.5
20260506174030 58 0 0.0 0.0 0.00 0.00 0.00 83 1016.6
20260506173529 58 0 0.0 0.0 0.00 0.00 0.00 82 1016.7
20260506173111 59 0 0.0 0.0 0.00 0.00 0.00 82 1016.8
20260506172527 59 0 0.0 2.0 0.00 0.00 0.00 82 1016.8
20260506172028 59 0 0.0 2.0 0.00 0.00 0.00 82 1016.9
20260506171543 59 0 0.0 1.0 0.00 0.00 0.00 81 1016.9
20260506171028 59 0 0.0 0.0 0.00 0.00 0.00 81 1016.9
20260506170528 59 0 0.0 0.0 0.00 0.00 0.00 81 1016.9
20260506170052 59 0 0.0 0.0 0.00 0.00 0.00 81 1016.9
20260506165529 59 0 0.0 0.0 0.00 0.00 0.00 80 1016.9
20260506165030 59 0 0.0 0.0 0.00 0.00 0.00 80 1016.9
20260506164539 60 0 0.0 0.0 0.00 0.00 0.00 79 1017.0
20260506164028 60 0 0.0 0.0 0.00 0.00 0.00 79 1017.0
20260506163527 60 0 0.0 0.0 0.00 0.00 0.00 78 1017.0
20260506163043 61 0 0.0 0.0 0.00 0.00 0.00 77 1017.0
20260506162529 61 0 0.0 0.0 0.00 0.00 0.00 76 1017.0
20260506162028 61 0 0.0 0.0 0.00 0.00 0.00 76 1017.0
20260506161542 61 0 0.0 0.0 0.00 0.00 0.00 76 1016.9
20260506161028 62 0 0.0 0.0 0.00 0.00 0.00 75 1017.0
20260506160527 62 0 0.0 0.0 0.00 0.00 0.00 74 1017.0
20260506160045 62 0 0.0 0.0 0.00 0.00 0.00 74 1017.1
20260506155527 63 0 0.0 1.0 0.00 0.00 0.00 73 1017.1
20260506155030 63 0 0.0 1.0 0.00 0.00 0.00 73 1017.1
20260506154603 63 0 0.0 2.0 0.00 0.00 0.00 72 1017.1
20260506154028 63 0 0.0 2.0 0.00 0.00 0.00 71 1017.2
20260506153528 64 0 0.0 2.0 0.00 0.00 0.00 71 1017.3
20260506153043 64 0 0.0 0.0 0.00 0.00 0.00 70 1017.3
20260506152529 64 0 0.0 0.0 0.00 0.00 0.00 70 1017.2
20260506152028 65 0 0.0 2.0 0.00 0.00 0.00 69 1017.2
20260506151546 65 0 0.0 2.0 0.00 0.00 0.00 69 1017.2
20260506151030 66 0 0.0 2.0 0.00 0.00 0.00 69 1017.3
20260506150527 66 0 0.0 1.0 0.00 0.00 0.00 69 1017.3
20260506150043 66 0 0.0 2.0 0.00 0.00 0.00 69 1017.3
20260506145532 67 0 0.0 2.0 0.00 0.00 0.00 69 1017.3
20260506145029 68 206 0.0 2.0 0.00 0.00 0.00 68 1017.3
20260506144551 68 173 0.0 2.0 0.00 0.00 0.00 67 1017.2
20260506144029 69 0 0.0 2.0 0.00 0.00 0.00 67 1017.2
20260506143529 69 0 0.0 2.0 0.00 0.00 0.00 67 1017.2
20260506143039 70 0 0.0 0.0 0.00 0.00 0.00 66 1017.2
20260506142528 70 0 0.0 0.0 0.00 0.00 0.00 65 1017.1
20260506142109 71 0 0.0 0.0 0.00 0.00 0.00 62 1017.1